CAPE
0 279 195 1328 780 117 68 45 62 36 38 34 15 29 90 394 188 224 85 146 70 135 261 442 799 1238 1676 1710 1830 1881 1472 1696 2061 1895 1892 1671 1549 1784 1783 1991 1920 1767 1889 1739 1819 1970 2052 1869 1901
65 164 353 430 284 109 144 92 67 68 47 116 122 84 192 345 173 123 134 159 110 168 284 453 1075 1151 1702 1979 2008 1939 2002 2034 2056 1931 1946 1718 1660 1721 1958 1861 1766 1487 1481 1691 1661 1902 2040 2157 2205
5 68 207 246 141 129 131 135 57 62 58 424 481 381 215 229 97 169 147 178 282 409 570 1093 1306 1414 1904 1956 1943 1956 1695 2037 1922 1605 1669 1118 1038 1063 1938 1797 1803 1461 1175 1415 1557 1735 1859 2097 1989
13 787 265 275 118 282 137 189 117 39 58 352 356 179 168 109 196 313 225 246 620 870 823 1152 1802 1690 1993 1995 1795 1874 2118 2072 1930 1525 1715 2030 1984 2065 1899 1826 1780 1899 1967 2001 1895 2350 1900 1804 1634
57 620 286 262 180 230 214 227 250 270 324 298 5 4 298 570 354 312 345 460 712 698 811 844 1838 1885 2061 1860 1890 1958 2072 2078 2133 2046 1858 1891 1777 1774 1843 1620 1772 1875 1731 1766 1959 1963 1651 1270 1344
719 370 266 127 226 247 324 374 418 420 390 150 0 29 532 585 306 331 346 484 457 495 505 1090 1797 1874 1974 1895 1763 1958 1998 1834 1859 1955 1698 1849 1880 1806 1799 1374 1786 1806 1656 1685 2005 2202 2165 1445 948
621 414 289 171 235 208 352 380 333 341 271 112 113 220 419 433 326 339 393 427 305 755 837 1054 1363 1920 2053 1892 2000 2116 1903 1710 2030 1944 1636 1805 1846 1694 1220 1268 1617 1624 1549 1740 1809 2043 2022 1696 1399
694 405 179 147 193 235 290 335 226 202 321 220 52 27 416 547 321 344 417 334 691 647 985 1122 1095 1250 1462 1669 1947 2166 2155 2017 2109 2000 1904 1911 1581 1248 1167 1738 1420 1367 1336 1515 1541 1714 2086 1827 1643
591 539 219 134 133 282 290 256 260 201 93 46 184 8 184 350 334 491 348 603 813 637 852 1020 1165 1537 1846 1728 1853 1801 2073 1904 1976 1691 1755 1628 666 801 1286 1695 1098 1152 1103 1166 1197 1489 1524 1662 1656
739 541 465 354 185 192 196 208 268 83 92 227 205 162 237 251 439 440 274 493 550 439 405 893 1057 1122 1545 1516 1925 1911 1559 1489 1411 1339 1186 823 987 1541 1028 1275 1332 1447 1607 1580 1754 1631 1148 897 851
289 464 425 165 121 179 289 240 275 72 145 210 185 267 209 227 446 393 276 350 383 359 488 924 1095 1360 1464 1590 1557 1755 1326 1475 1636 1585 1006 1221 1028 1024 786 863 691 756 677 738 739 1061 1130 1330 955
417 125 45 271 135 75 84 367 279 104 197 112 58 180 272 441 485 279 263 254 354 431 570 897 1039 1587 1711 1568 1343 1197 1315 1233 1048 1496 1680 1586 928 972 565 349 734 924 758 1063 1258 1138 1606 1308 921
333 250 116 113 43 35 100 402 388 166 112 34 91 247 312 307 352 185 169 161 320 415 613 777 1094 1739 1915 1663 1242 1113 1066 1081 1301 1578 1875 1444 1042 861 762 1115 1021 1238 1304 1371 1493 1334 1434 1141 718
512 676 784 457 401 93 60 321 446 190 48 92 192 245 311 295 281 288 110 153 235 345 614 715 1035 1643 1735 1504 1361 1140 882 1113 1257 1465 1707 2003 1074 1285 1086 1439 1271 1463 1622 1470 1436 1499 1338 749 777
773 832 789 647 370 201 258 358 325 199 172 182 171 208 220 346 330 335 147 108 151 321 554 732 1036 1412 1641 1607 2179 1342 1130 1051 1293 1542 2066 1802 1536 1781 1975 1377 1467 1373 1705 2529 2007 1685 1289 740 652
642 403 380 627 521 447 367 181 272 309 290 169 110 139 234 404 462 412 325 38 95 253 507 640 585 1105 1670 1728 1904 1362 1201 1268 1476 1679 1781 2091 1942 2013 2085 1449 1456 1839 2380 1842 1366 1063 776 874 762
32 65 209 597 587 374 243 245 194 258 417 333 158 166 187 434 566 580 416 209 98 263 500 564 509 1027 1481 1888 1617 1614 1756 1411 1625 1588 1653 2217 1892 1960 1871 1331 1821 2787 2394 2428 1914 1511 1127 900 716
21 30 61 203 644 492 206 320 79 211 520 528 371 152 99 307 476 608 510 337 183 279 529 574 855 1122 1458 1723 1825 1523 1421 1359 1435 1518 1576 1799 1818 2096 2448 1589 2087 2699 2205 2231 2286 2196 1891 1440 1157
0 0 5 488 452 480 451 324 163 93 152 597 422 141 123 158 337 538 557 401 329 424 638 997 1109 1447 1477 1528 1380 1292 1229 1499 1423 1288 2034 1989 2299 2526 2671 1517 1789 2326 2314 2837 2660 2442 2613 1876 2095
0 0 21 392 348 291 239 233 56 272 70 313 535 200 169 132 284 474 588 528 355 399 674 1009 1183 1492 1810 1687 1719 1245 1124 1316 1237 1339 1732 1780 2245 2276 2288 2323 1661 2539 1900 3014 2858 2815 1742 1675 2094
0 0 10 74 329 228 167 222 171 127 137 141 327 372 103 150 181 413 568 608 434 462 546 875 1279 1422 1528 1391 1488 1543 2056 1556 1628 1742 1648 1720 1952 2082 2461 2297 1827 2309 2086 1816 3008 2822 2721 1514 2176
0 0 0 280 165 155 178 58 294 223 339 174 75 255 49 39 155 248 440 605 528 519 609 691 1139 1471 1483 1473 1821 1779 1196 907 1808 1688 1476 1627 1714 1792 2092 2036 2090 2335 1559 2112 2172 2308 3072 3148 1684
0 0 0 242 201 162 192 156 66 210 345 243 166 267 57 51 76 187 327 520 534 544 628 716 1167 1682 1564 1888 1661 1012 940 850 1035 1075 1497 1603 2086 1929 1521 2224 2262 2030 1368 1851 2643 2572 3060 2195 1911
0 0 179 345 190 105 82 211 128 389 179 120 59 123 169 257 106 182 297 439 552 567 609 674 1108 1601 1265 1837 1357 1344 961 950 1036 1114 1160 1408 1152 1365 1995 1970 2322 2015 1803 1736 2092 2653 2564 2816 2402
0 10 76 90 124 44 308 178 199 188 196 115 68 134 257 324 214 165 329 358 548 602 620 686 980 1352 1302 1638 1426 1015 919 1036 987 1012 829 1158 1036 1152 1551 1955 2090 1714 2218 1913 1775 2566 2530 2425 2320
8 17 40 68 68 125 415 196 271 301 190 132 202 184 297 259 301 184 262 408 536 661 668 699 814 1107 1210 1293 1048 1416 1295 1515 949 879 1102 797 937 934 1021 1349 1477 1547 1872 1809 1913 1436 1593 1523 1939
65 135 30 73 93 129 143 338 380 313 198 152 109 26 17 51 182 311 239 482 626 732 745 789 827 959 937 977 1250 1489 1935 1672 1091 1252 1649 1279 2433 2043 1700 1685 1524 1323 1456 1460 1616 1269 1388 1784 2004
350 320 170 80 142 200 155 286 236 241 308 224 175 65 22 33 149 347 278 528 710 753 787 865 844 835 834 819 1071 1227 1310 1596 1544 1560 1883 1316 1399 1698 1592 1789 1736 1707 1766 1861 2157 1417 1647 1751 1455
264 396 347 260 376 222 283 292 256 277 363 384 252 179 89 200 146 304 342 589 702 755 756 987 906 788 838 868 1019 1088 1099 1172 1436 1378 1653 1855 2179 1889 1869 2035 1917 1824 1804 1859 2179 1977 1486 1765 1650
7 173 220 329 241 441 304 141 466 476 444 423 359 195 132 239 186 103 409 662 715 753 761 1077 1055 963 998 917 1154 1331 1325 1329 1117 1435 1449 1817 2054 1982 2032 1951 1811 1568 1687 1731 1910 1908 1280 1508 1502
CIN
-0 -152 -165 -47 -0 -0 -0 -0 -0 -2 -5 -12 -16 -0 -1 -1 -1 -3 -1 -0 -94 -95 -67 -49 -25 -8 -0 -1 -0 -0 -0 -0 -0 -0 -0 -0 -0 -0 -0 -0 -0 -0 -0 -0 -0 -0 -0 -0 -0
-135 -171 -121 -68 -0 -0 -3 -0 -0 -2 -13 -24 -19 -7 -0 -7 -39 -40 -14 -13 -97 -40 -30 -36 -29 -16 -1 -0 -0 -0 -0 -0 -0 -0 -0 -0 -0 -0 -0 -0 -0 -2 -0 -0 -0 -0 -0 -0 -0
-183 -228 -110 -42 -3 -0 -2 -0 -3 -17 -18 -0 -0 -2 -2 -8 -33 -22 -21 -8 -2 -23 -0 -5 -16 -6 -0 -0 -0 -0 -0 -0 -0 -0 -0 -0 -0 -0 -0 -0 -1 -4 -5 -2 -0 -0 -0 -0 -0
-138 -39 -89 -18 -0 -5 -0 -0 -11 -21 -17 -4 -0 -17 -21 -5 -3 -13 -28 -4 -0 -0 -0 -35 -1 -4 -0 -0 -0 -0 -0 -0 -0 -0 -0 -0 -0 -0 -0 -0 -1 -0 -0 -0 -0 -0 -0 -0 -0
-86 -22 -12 -14 -6 -3 -0 -4 -3 -0 -1 -1 -3 -10 -14 -0 -0 -10 -10 -0 -0 -0 -0 -5 -0 -0 -0 -0 -0 -0 -0 -0 -0 -0 -0 -0 -0 -0 -0 -0 -0 -0 -0 -0 -0 -0 -0 -0 -0
-1 -17 -3 -30 -0 -7 -0 -5 -0 -0 -2 -11 -0 -11 -0 -0 -0 -0 -0 -0 -0 -0 -0 -0 -0 -0 -0 -2 -1 -1 -0 -1 -2 -0 -0 -0 -0 -0 -0 -0 -0 -0 -1 -0 -0 -0 -0 -0 -12
-0 -0 -1 -0 -0 -2 -2 -1 -0 -0 -0 -0 -0 -0 -0 -3 -0 -0 -0 -0 -0 -0 -0 -0 -0 -1 -0 -1 -1 -0 -1 -2 -1 -0 -0 -0 -0 -0 -0 -1 -2 -5 -6 -1 -0 -0 -0 -1 -7
-0 -0 -0 -0 -0 -0 -8 -5 -3 -0 -0 -15 -3 -2 -1 -0 -1 -0 -0 -1 -0 -0 -0 -0 -0 -0 -0 -0 -2 -0 -1 -0 -0 -0 -0 -1 -0 -1 -3 -3 -7 -9 -13 -11 -14 -7 -5 -6 -8
-16 -0 -0 -0 -0 -7 -9 -5 -8 -18 -15 -11 -0 -0 -5 -22 -5 -0 -0 -0 -0 -0 -0 -0 -0 -0 -0 -0 -0 -4 -0 -0 -0 -2 -4 -5 -0 -0 -0 -1 -17 -17 -19 -22 -19 -23 -23 -19 -25
-1 -0 -1 -13 -59 -41 -30 -8 -6 -14 -7 -6 -6 -11 -26 -29 -1 -0 -0 -0 -0 -0 -0 -0 -0 -0 -0 -0 -0 -0 -0 -0 -0 -0 -0 -0 -0 -0 -0 -14 -32 -32 -27 -28 -32 -35 -44 -84 -0
-81 -14 -17 -73 -85 -80 -25 -5 -3 -8 -0 -0 -5 -17 -22 -21 -0 -0 -0 -0 -0 -2 -0 -0 -0 -0 -0 -0 -0 -0 -0 -0 -0 -0 -0 -0 -0 -0 -0 -11 -12 -7 -56 -0 -12 -14 -0 -0 -0
-4 -42 -101 -31 -52 -68 -45 -0 -0 -4 -0 -2 -13 -15 -10 -0 -0 -1 -1 -2 -1 -1 -0 -0 -0 -0 -0 -0 -0 -0 -0 -0 -0 -0 -0 -0 -0 -0 -11 -8 -8 -3 -0 -2 -0 -0 -0 -0 -1
-0 -7 -57 -30 -38 -23 -3 -0 -0 -6 -8 -11 -16 -6 -0 -0 -0 -20 -15 -19 -6 -4 -0 -0 -0 -0 -0 -0 -0 -0 -0 -0 -0 -0 -0 -0 -0 -8 -4 -6 -0 -0 -0 -0 -0 -0 -0 -0 -3
-0 -0 -0 -0 -2 -24 -7 -3 -0 -0 -30 -13 -13 -1 -0 -0 -0 -6 -37 -20 -22 -13 -0 -2 -0 -0 -0 -0 -0 -0 -0 -0 -0 -0 -0 -0 -0 -0 -0 -0 -0 -0 -0 -0 -0 -0 -0 -0 -0
-0 -0 -0 -2 -8 -23 -1 -0 -5 -0 -16 -9 -6 -0 -0 -0 -1 -1 -23 -34 -37 -14 -8 -5 -0 -0 -0 -0 -0 -0 -0 -0 -0 -0 -0 -1 -1 -5 -1 -0 -0 -0 -8 -5 -2 -0 -0 -0 -0
-0 -1 -0 -6 -0 -2 -5 -2 -11 -0 -2 -15 -5 -0 -0 -0 -0 -0 -3 -37 -43 -17 -17 -8 -3 -0 -0 -0 -0 -0 -0 -0 -0 -0 -0 -0 -8 -6 -4 -0 -0 -4 -3 -0 -0 -0 -0 -0 -1
-4 -0 -14 -2 -1 -5 -10 -5 -29 -37 -0 -6 -22 -0 -0 -0 -1 -0 -0 -1 -34 -13 -14 -8 -8 -0 -0 -0 -0 -0 -0 -0 -0 -0 -0 -0 -4 -9 -2 -0 -0 -4 -0 -0 -0 -0 -0 -1 -3
-0 -0 -7 -13 -6 -1 -6 -0 -52 -27 -1 -0 -0 -0 -0 -0 -0 -0 -0 -0 -8 -8 -7 -4 -0 -0 -0 -0 -0 -0 -0 -0 -0 -0 -0 -6 -2 -6 -0 -0 -2 -0 -0 -0 -0 -0 -0 -0 -0
-0 -0 -0 -0 -25 -1 -0 -0 -5 -39 -42 -0 -1 -4 -0 -0 -0 -0 -0 -0 -0 -0 -0 -0 -0 -0 -0 -0 -0 -0 -0 -0 -0 -0 -0 -5 -0 -0 -0 -0 -4 -0 -0 -2 -0 -1 -0 -0 -2
-0 -0 -0 -12 -27 -13 -4 -5 -18 -3 -68 -12 -0 -34 -1 -4 -0 -0 -0 -0 -0 -0 -0 -0 -0 -0 -0 -0 -0 -0 -0 -0 -0 -0 -0 -0 -0 -0 -0 -0 -4 -4 -0 -0 -0 -4 -0 -0 -1
-0 -0 -0 -4 -32 -23 -10 -5 -17 -34 -27 -11 -0 -15 -30 -0 -0 -0 -0 -0 -0 -0 -0 -0 -0 -0 -0 -0 -0 -0 -0 -0 -0 -0 -0 -0 -0 -0 -1 -6 -1 -4 -5 -0 -1 -1 -5 -0 -3
-0 -0 -0 -8 -10 -0 -14 -0 -10 -20 -4 -5 -32 -9 -98 -12 -0 -0 -0 -0 -0 -0 -0 -0 -0 -0 -0 -0 -0 -0 -0 -0 -0 -0 -0 -0 -0 -0 -0 -0 -5 -8 -2 -5 -0 -0 -3 -7 -0
-0 -0 -0 -7 -12 -0 -0 -0 -0 -32 -6 -26 -19 -35 -70 -31 -0 -0 -0 -0 -0 -0 -0 -0 -0 -0 -0 -0 -1 -0 -0 -0 -0 -0 -0 -0 -0 -0 -0 -0 -3 -7 -11 -8 -3 -0 -0 -0 -0
-0 -0 -0 -0 -0 -0 -0 -0 -0 -11 -38 -47 -85 -35 -31 -16 -0 -0 -0 -0 -0 -0 -0 -0 -0 -0 -0 -0 -0 -0 -0 -0 -0 -0 -0 -0 -0 -0 -0 -0 -0 -4 -0 -9 -1 -0 -0 -0 -3
-0 -0 -0 -0 -0 -0 -5 -0 -6 -6 -13 -21 -48 -54 -17 -6 -0 -8 -0 -0 -0 -0 -3 -1 -0 -0 -0 -0 -0 -0 -0 -0 -0 -0 -0 -0 -0 -0 -0 -0 -0 -0 -0 -0 -1 -0 -0 -0 -0
-8 -0 -0 -0 -0 -0 -16 -2 -0 -17 -20 -26 -22 -46 -13 -5 -5 -1 -0 -0 -0 -1 -15 -7 -2 -0 -0 -0 -0 -0 -0 -0 -0 -1 -0 -1 -2 -6 -1 -0 -0 -0 -0 -0 -0 -0 -0 -0 -0
-0 -0 -0 -0 -2 -0 -0 -3 -9 -8 -25 -6 -16 -50 -77 -43 -1 -0 -0 -8 -0 -1 -20 -16 -7 -1 -0 -0 -0 -0 -0 -0 -0 -0 -1 -0 -0 -0 -0 -0 -0 -0 -0 -0 -0 -0 -0 -0 -0
-4 -4 -0 -0 -0 -0 -0 -0 -0 -0 -8 -16 -2 -38 -87 -68 -13 -0 -1 -6 -8 -13 -20 -16 -9 -4 -0 -0 -0 -0 -0 -0 -0 -0 -1 -0 -0 -5 -0 -0 -0 -0 -0 -0 -0 -0 -0 -0 -0
-5 -2 -0 -0 -0 -0 -0 -0 -30 -10 -32 -11 -7 -17 -52 -19 -73 -6 -7 -13 -17 -22 -13 -21 -19 -4 -0 -0 -0 -0 -0 -0 -0 -0 -0 -0 -0 -0 -0 -0 -0 -0 -0 -0 -0 -0 -0 -0 -0
-2 -0 -0 -0 -0 -0 -0 -10 -48 -36 -25 -19 -14 -65 -19 -21 -43 -76 -6 -18 -21 -20 -10 -14 -20 -12 -0 -0 -0 -0 -0 -0 -0 -0 -0 -0 -0 -0 -0 -0 -0 -0 -0 -0 -0 -0 -0 -0 -0
Wind_Speed
10 8 3 5 7 3 8 7 7 9 8 4 6 1 13 12 10 11 18 14 14 11 8 7 6 8 10 9 11 12 13 13 15 15 15 15 14 13 13 15 14 14 14 14 14 15 15 16 15
5 2 4 3 6 7 7 7 7 8 9 9 8 7 4 13 12 17 16 18 11 10 13 9 6 7 9 10 11 12 13 13 13 15 15 13 13 13 13 14 13 14 13 13 11 12 14 15 15
4 2 1 1 3 7 8 6 10 8 11 5 5 9 6 8 17 18 17 18 17 12 8 14 9 8 9 9 11 10 12 12 13 14 13 13 11 13 13 15 13 14 14 14 15 14 13 14 14
4 5 3 2 6 6 9 9 11 10 8 1 7 12 10 11 11 12 18 15 14 11 8 11 9 7 8 8 10 11 12 13 12 14 13 13 12 13 11 13 13 13 13 13 14 15 14 14 13
4 4 2 4 5 7 10 10 8 9 5 5 6 11 13 7 11 18 17 13 11 10 9 13 9 8 7 7 8 10 11 12 12 14 13 11 11 11 12 13 12 13 13 13 14 15 14 13 12
4 4 5 2 10 11 9 7 7 6 8 7 13 15 11 10 15 15 14 11 9 9 8 13 10 9 8 8 8 10 11 11 12 13 12 12 11 11 10 12 12 11 13 14 13 13 13 13 13
5 4 2 10 12 11 8 5 5 7 9 9 12 12 13 13 13 12 12 10 9 9 9 10 13 11 9 8 9 11 11 10 11 12 12 12 13 12 11 11 11 10 11 12 13 12 10 11 10
3 3 7 3 11 11 7 5 5 5 6 11 10 8 16 17 13 12 12 11 9 8 10 9 9 11 10 11 9 12 12 11 11 12 13 11 13 12 10 9 9 9 10 10 11 10 10 9 8
2 5 6 6 9 8 9 8 4 2 12 7 4 6 20 19 15 13 12 12 11 8 8 10 10 8 6 8 9 10 12 12 13 12 8 9 8 9 9 11 8 8 8 9 8 8 7 7 8
3 3 6 5 7 3 6 7 7 8 11 9 10 16 19 18 15 14 13 12 11 11 10 9 10 10 9 8 9 7 8 7 8 8 7 6 7 8 10 8 6 6 6 6 5 5 6 11 2
4 2 11 6 8 3 2 6 4 7 9 9 16 20 18 17 14 12 11 12 12 11 8 10 9 8 8 8 7 5 5 6 7 7 6 6 6 6 4 5 5 6 6 4 6 7 2 5 4
3 8 5 9 6 6 2 5 4 7 6 7 18 19 17 16 13 12 12 11 13 11 11 10 10 8 7 7 6 6 5 6 6 8 6 5 4 4 1 2 3 3 3 2 1 3 4 4 3
4 10 3 10 10 10 9 8 3 10 1 13 19 17 15 14 12 10 11 11 12 12 11 11 10 8 7 6 5 5 6 5 8 6 6 3 4 3 3 3 2 1 2 2 0 2 4 4 7
5 7 5 5 6 9 11 7 7 10 12 15 18 17 14 13 13 11 10 12 12 12 11 11 10 8 8 6 6 5 4 6 5 5 6 4 3 2 3 3 3 3 1 2 1 2 3 3 9
11 8 5 3 6 7 6 11 9 12 14 15 16 15 15 13 12 11 11 12 13 11 12 12 11 10 9 8 7 6 6 6 5 5 5 4 2 4 1 3 2 3 1 3 3 3 3 5 7
8 6 4 4 6 5 7 8 5 8 14 15 15 14 14 14 12 10 11 11 13 12 12 11 10 12 10 8 6 5 5 4 4 4 4 5 4 2 3 3 3 3 2 2 2 3 4 4 5
6 3 1 4 5 4 8 6 5 2 12 17 15 15 15 14 13 11 11 11 13 12 12 12 10 10 9 8 6 5 6 4 4 4 4 6 5 4 1 2 3 1 2 2 1 4 3 4 4
6 5 2 2 5 9 13 6 4 4 12 15 18 16 16 15 16 14 12 12 13 13 13 12 10 10 8 7 4 5 5 4 4 4 4 5 5 4 3 3 1 3 2 3 4 2 2 0 1
2 2 3 5 4 5 9 11 13 4 6 17 16 14 16 17 16 14 13 13 13 13 14 13 12 10 8 7 7 6 5 5 5 4 4 5 4 4 3 3 2 2 2 4 1 4 3 4 2
8 8 4 4 5 6 7 11 7 14 11 15 17 13 17 18 17 15 15 15 14 15 14 13 12 11 9 7 4 4 5 5 5 4 5 5 5 4 3 1 2 2 1 2 2 2 1 2 1
10 11 4 7 6 6 7 14 14 12 16 13 18 18 18 17 17 17 16 16 15 15 15 14 13 12 10 8 7 5 3 3 3 6 7 6 6 5 3 3 2 2 4 1 3 3 4 1 1
11 8 8 6 6 5 5 6 10 16 19 16 18 18 19 19 17 17 18 17 17 16 15 15 14 12 11 12 8 10 8 6 4 5 3 3 6 6 5 3 3 3 3 2 1 1 5 5 1
8 2 8 9 8 7 9 8 5 16 17 23 21 22 20 24 20 20 19 19 17 16 15 15 14 11 12 12 7 9 9 8 6 4 5 5 5 6 6 5 4 3 5 3 3 3 3 2 5
3 6 5 3 4 11 12 9 11 12 23 22 24 23 24 25 23 21 19 17 16 15 15 15 15 13 12 11 11 9 7 5 4 5 6 5 7 7 7 6 5 4 4 4 4 3 4 4 4
14 12 9 9 10 10 5 8 14 5 10 20 22 24 25 24 22 21 19 17 17 17 16 15 16 15 15 13 10 11 10 9 9 8 7 7 6 6 6 7 6 6 6 4 4 4 4 4 5
15 16 11 7 9 5 3 8 3 4 6 14 18 19 22 22 23 23 20 18 17 18 18 16 17 16 16 14 13 11 10 6 8 9 5 7 6 7 8 9 8 8 7 5 5 6 6 5 6
11 10 12 13 9 8 8 9 14 6 8 12 18 17 17 24 23 23 22 19 18 18 18 17 16 16 16 16 13 12 10 10 8 5 5 9 9 8 8 9 9 9 9 8 7 7 6 6 6
12 6 9 9 8 13 10 5 3 14 10 9 16 17 14 18 22 22 20 20 17 18 17 17 16 16 16 15 13 11 11 10 9 8 8 6 5 6 6 7 9 11 10 10 9 6 7 6 6
10 12 10 10 9 8 8 3 5 11 12 8 11 14 15 13 15 17 19 18 18 17 17 16 15 15 15 14 13 12 11 11 9 9 8 7 7 6 6 7 7 8 8 9 9 8 8 8 8
14 14 12 10 16 13 12 10 5 9 11 4 4 4 12 13 15 9 15 16 17 18 17 16 15 14 14 13 13 12 11 10 10 9 9 7 7 7 7 6 6 6 8 8 9 10 9 10 10
Wind_Direction
198 204 270 234 229 194 117 111 112 131 134 96 105 345 73 24 3 80 128 123 131 146 135 110 84 77 103 118 107 103 101 97 97 95 93 93 93 89 91 85 87 82 82 84 82 85 86 92 95
179 152 215 267 243 136 103 121 135 127 101 115 109 124 44 71 87 121 136 132 147 147 141 131 109 85 99 97 103 99 107 95 93 90 93 96 95 90 93 91 89 85 82 83 99 94 91 93 95
207 249 302 337 277 79 109 138 130 112 136 126 101 42 38 90 119 139 128 148 152 156 153 104 104 92 95 97 100 103 100 92 91 96 100 99 99 95 86 98 97 87 84 85 95 97 98 92 91
197 186 164 194 139 77 93 130 130 138 136 69 111 92 82 104 122 127 143 147 157 149 140 109 107 99 101 99 108 107 105 104 109 108 106 93 95 96 99 99 94 88 80 92 97 96 93 87 92
232 236 163 104 113 110 111 112 131 142 127 137 137 110 108 102 118 132 144 159 152 151 129 134 125 123 113 116 115 115 109 110 107 99 98 98 98 99 105 100 98 91 86 86 109 97 90 85 85
233 275 158 141 119 112 114 127 133 131 127 119 123 124 96 123 142 141 147 151 146 139 140 124 135 135 127 122 118 108 107 111 105 102 101 99 97 105 101 106 104 97 90 89 110 99 86 84 87
293 265 68 146 129 132 128 143 162 140 137 136 139 127 122 143 137 142 148 141 137 147 133 133 140 134 128 132 126 115 108 103 102 104 106 105 106 106 103 107 112 109 98 95 96 90 99 97 100
286 259 155 180 167 120 132 109 117 142 82 121 168 147 154 135 151 143 146 142 138 144 140 129 141 139 153 141 131 114 108 100 102 105 109 110 101 102 108 122 113 112 103 102 96 101 96 122 113
253 229 160 180 144 133 143 135 101 91 142 135 109 148 125 143 148 151 150 146 147 147 157 149 124 131 103 116 116 126 113 104 106 107 124 177 111 121 125 72 112 113 110 104 116 114 117 151 145
334 222 73 48 82 38 154 164 138 154 147 142 121 106 132 147 162 157 164 149 154 151 157 129 138 143 142 124 127 130 147 105 99 93 102 112 98 59 84 94 96 86 99 114 115 140 182 219 122
280 54 142 140 141 162 349 185 163 166 188 157 150 142 151 158 165 162 164 159 155 150 143 146 131 143 150 120 144 165 141 135 116 111 109 89 123 140 113 125 150 149 198 162 185 185 184 38 360
120 131 147 143 141 82 213 251 172 209 352 137 146 146 155 163 163 163 163 157 149 151 153 150 148 146 137 139 166 136 129 134 130 104 133 140 134 112 64 103 109 188 128 124 310 75 38 57 78
134 149 148 159 160 171 213 224 221 191 124 140 146 155 163 164 155 152 154 154 151 158 153 149 147 144 148 163 141 130 130 156 118 151 116 117 117 94 104 108 132 66 131 103 132 82 50 114 97
110 132 122 162 212 216 216 221 208 168 160 148 158 167 168 167 161 148 157 157 162 157 155 148 161 153 153 138 148 148 157 124 156 130 110 141 120 115 111 120 128 115 50 92 131 71 40 97 112
132 119 124 103 152 140 231 206 210 156 163 163 171 173 171 174 160 161 153 160 165 163 155 155 165 158 162 153 159 168 166 145 142 129 142 134 170 128 309 119 140 84 105 221 189 202 158 123 119
200 181 217 90 170 146 272 148 66 161 178 164 182 175 178 176 174 167 156 161 157 159 159 164 172 161 165 148 168 160 138 152 146 140 154 159 155 146 185 159 119 76 237 217 192 182 147 129 127
198 266 113 137 220 143 216 144 119 277 204 162 214 183 187 180 189 175 166 161 155 158 163 168 176 170 162 150 168 172 132 186 157 158 157 137 161 143 263 156 97 236 199 183 231 140 164 142 140
163 215 186 64 143 199 208 198 175 190 227 206 199 192 191 186 189 176 180 164 161 160 164 167 178 161 168 152 176 170 150 163 153 153 138 150 136 155 226 138 51 260 197 143 63 72 122 34 104
255 233 281 108 157 217 233 238 192 194 235 223 198 192 200 194 180 177 186 171 167 168 169 171 178 168 178 186 186 175 161 166 172 165 146 156 160 150 176 175 191 230 70 17 102 159 168 126 148
223 229 192 107 160 238 209 244 231 203 216 242 211 174 221 193 179 187 191 181 183 176 181 177 182 187 196 189 226 202 180 195 165 178 168 200 183 176 182 265 209 29 106 48 43 333 288 107 109
231 256 232 303 173 224 270 241 209 218 211 217 232 188 219 205 196 187 195 194 186 181 187 189 190 191 203 216 191 202 143 154 194 165 182 187 198 198 207 188 275 228 278 121 346 21 320 74 114
243 212 255 211 226 286 211 299 193 191 204 212 211 202 206 213 207 196 194 199 192 186 187 193 200 195 199 196 190 189 212 201 164 167 208 191 198 199 196 194 209 241 307 327 244 357 326 299 198
273 251 240 226 249 291 202 259 270 179 204 205 211 207 201 207 211 207 197 195 198 184 188 188 192 193 192 187 190 197 219 188 206 217 162 191 203 217 208 207 200 214 237 193 277 269 341 285 316
114 198 195 218 257 251 258 227 277 185 225 210 211 213 213 205 206 204 206 197 195 186 186 186 186 188 193 197 192 221 203 198 244 210 216 227 189 205 214 217 224 219 240 226 233 241 240 313 331
205 202 205 212 208 253 89 247 259 269 239 224 203 205 210 208 203 203 204 199 193 187 187 187 189 192 194 200 198 206 215 212 209 213 219 213 256 241 162 224 219 222 216 232 250 229 278 255 289
213 238 254 235 258 221 129 248 265 10 297 202 193 208 212 213 203 204 196 201 196 191 187 191 189 198 196 200 204 205 215 209 221 214 202 227 234 241 229 233 227 224 227 224 229 235 245 228 252
170 235 269 294 256 280 248 239 259 312 250 214 196 196 217 215 219 202 194 197 195 196 188 192 193 201 202 201 208 210 205 225 222 242 200 207 203 222 233 226 227 231 221 222 226 242 227 250 242
274 9 211 223 265 259 242 230 314 339 337 226 210 200 220 218 204 208 194 190 194 200 189 191 196 198 202 207 200 204 211 213 221 227 217 229 233 225 225 226 218 219 222 219 219 242 215 237 252
176 228 230 305 231 281 253 77 26 334 319 251 207 212 200 193 210 206 196 188 192 196 192 191 192 199 201 205 202 209 209 213 216 226 226 221 217 216 214 218 225 227 228 227 229 242 262 235 240
279 284 267 228 223 236 281 213 103 359 342 249 201 169 191 208 180 228 202 195 186 193 195 189 192 196 205 204 208 207 210 217 215 218 229 219 212 200 202 204 218 236 235 232 231 236 254 231 240